DFETT EDDG-EDDH

Flight info

Callsign DFETT
Flight time 0h 49m
Altitude 23000
Route OSN2C OSN DCT STADE/N0277F240 DCT RIBSO RIBSO3S
Aircraft SF50/L-SDGRWY/L

Departure

Time 2026-04-25 13:28
Airport Münster Osnabrück Airport (EDDG)

Arrival

Time 2026-04-25 14:17
Airport Hamburg Helmut Schmidt Airport (EDDH)
Time Latitude Longitude Altitude Speed Heading
2026-04-25 13:13 52.13201 7.68764 157 ft 0 kts 161°
2026-04-25 13:22 52.13200 7.68764 157 ft 1 kts 160°
2026-04-25 13:22 52.13192 7.68791 158 ft 4 kts 88°
2026-04-25 13:23 52.13237 7.68912 159 ft 8 kts 347°
2026-04-25 13:23 52.13290 7.68884 159 ft 8 kts 342°
2026-04-25 13:23 52.13347 7.68864 159 ft 9 kts 11°
2026-04-25 13:23 52.13388 7.68960 159 ft 10 kts 71°
2026-04-25 13:24 52.13411 7.69069 159 ft 11 kts 70°
2026-04-25 13:24 52.13441 7.69210 159 ft 13 kts 71°
2026-04-25 13:24 52.13474 7.69365 159 ft 15 kts 71°
2026-04-25 13:24 52.13506 7.69513 159 ft 12 kts 68°
2026-04-25 13:25 52.13532 7.69624 159 ft 9 kts 74°
2026-04-25 13:25 52.13552 7.69747 159 ft 12 kts 71°
2026-04-25 13:25 52.13585 7.69894 159 ft 13 kts 69°
2026-04-25 13:25 52.13630 7.70012 156 ft 12 kts 33°
2026-04-25 13:26 52.13702 7.70024 155 ft 9 kts 350°
2026-04-25 13:26 52.13764 7.69993 155 ft 8 kts 330°
2026-04-25 13:26 52.13771 7.69937 155 ft 0 kts 250°
2026-04-25 13:26 52.13770 7.69937 155 ft 1 kts 250°
2026-04-25 13:27 52.13677 7.69489 159 ft 80 kts 252°
2026-04-25 13:27 52.13432 7.68313 191 ft 133 kts 252°
2026-04-25 13:27 52.13086 7.66711 334 ft 162 kts 250°
2026-04-25 13:27 52.12383 7.65161 422 ft 187 kts 216°
2026-04-25 13:28 52.11194 7.64532 1107 ft 173 kts 193°
2026-04-25 13:28 52.10800 7.64508 1330 ft 171 kts 182°
2026-04-25 13:28 52.08930 7.65883 1943 ft 187 kts 145°
2026-04-25 13:28 52.07946 7.67181 2528 ft 178 kts 140°
2026-04-25 13:29 52.06982 7.68543 2802 ft 192 kts 137°
2026-04-25 13:29 52.06442 7.70496 3168 ft 194 kts 103°
2026-04-25 13:29 52.06470 7.72640 3655 ft 189 kts 81°
2026-04-25 13:30 52.07279 7.76628 4672 ft 189 kts 71°
2026-04-25 13:30 52.07774 7.78662 5303 ft 202 kts 71°
2026-04-25 13:30 52.08302 7.80805 5965 ft 210 kts 68°
2026-04-25 13:31 52.09428 7.85350 7328 ft 223 kts 68°
2026-04-25 13:31 52.10004 7.87671 7997 ft 227 kts 69°
2026-04-25 13:31 52.10590 7.90055 8672 ft 230 kts 66°
2026-04-25 13:31 52.11188 7.92477 9350 ft 232 kts 66°
2026-04-25 13:32 52.11793 7.94916 10027 ft 233 kts 66°
2026-04-25 13:32 52.12392 7.97345 10696 ft 234 kts 68°
2026-04-25 13:32 52.12993 7.99801 11373 ft 234 kts 67°
2026-04-25 13:32 52.13593 8.02239 12045 ft 233 kts 68°
2026-04-25 13:33 52.14187 8.04660 12705 ft 231 kts 67°
2026-04-25 13:33 52.14777 8.07067 13288 ft 234 kts 67°
2026-04-25 13:33 52.15379 8.09526 13837 ft 237 kts 67°
2026-04-25 13:33 52.15585 8.10368 14023 ft 238 kts 67°
2026-04-25 13:34 52.16608 8.14553 14937 ft 242 kts 67°
2026-04-25 13:34 52.17231 8.17106 15445 ft 245 kts 66°
2026-04-25 13:34 52.17639 8.18781 15768 ft 247 kts 66°
2026-04-25 13:34 52.18267 8.21359 16225 ft 250 kts 66°
2026-04-25 13:35 52.18912 8.24013 16678 ft 253 kts 66°
2026-04-25 13:35 52.19567 8.26705 17112 ft 257 kts 66°
2026-04-25 13:35 52.20507 8.29085 17520 ft 249 kts 30°
2026-04-25 13:35 52.21993 8.30396 17942 ft 242 kts 14°
2026-04-25 13:36 52.23524 8.31614 18349 ft 247 kts 17°
2026-04-25 13:36 52.25032 8.32904 18748 ft 250 kts 17°
2026-04-25 13:36 52.26587 8.34255 19157 ft 252 kts 17°
2026-04-25 13:36 52.28137 8.35604 19562 ft 254 kts 17°
2026-04-25 13:37 52.29683 8.36951 19963 ft 255 kts 17°
2026-04-25 13:37 52.31258 8.38323 20370 ft 256 kts 16°
2026-04-25 13:37 52.32819 8.39685 20774 ft 257 kts 16°
2026-04-25 13:37 52.34379 8.41047 21176 ft 257 kts 15°
2026-04-25 13:38 52.35955 8.42423 21583 ft 256 kts 15°
2026-04-25 13:38 52.37526 8.43796 21990 ft 256 kts 14°
2026-04-25 13:38 52.39070 8.45148 22391 ft 255 kts 14°
2026-04-25 13:38 52.40638 8.46521 22800 ft 254 kts 14°
2026-04-25 13:39 52.42186 8.47878 23207 ft 252 kts 13°
2026-04-25 13:39 52.43724 8.49228 23612 ft 250 kts 13°
2026-04-25 13:39 52.45319 8.50608 23562 ft 271 kts 14°
2026-04-25 13:39 52.47012 8.52085 23545 ft 287 kts 15°
2026-04-25 13:40 52.48813 8.53674 23652 ft 295 kts 15°
2026-04-25 13:40 52.50607 8.55263 23880 ft 297 kts 15°
2026-04-25 13:40 52.52472 8.56904 23814 ft 309 kts 15°
2026-04-25 13:40 52.54383 8.58591 23978 ft 312 kts 16°
2026-04-25 13:41 52.56295 8.60282 24097 ft 316 kts 16°
2026-04-25 13:41 52.58241 8.61999 24109 ft 324 kts 16°
2026-04-25 13:41 52.60254 8.63779 24110 ft 330 kts 16°
2026-04-25 13:41 52.62274 8.65568 24104 ft 335 kts 17°
2026-04-25 13:42 52.64355 8.67415 24099 ft 339 kts 18°
2026-04-25 13:42 52.66424 8.69251 24098 ft 342 kts 18°
2026-04-25 13:42 52.68525 8.71119 24098 ft 345 kts 18°
2026-04-25 13:42 52.70657 8.73015 24099 ft 347 kts 18°
2026-04-25 13:43 52.72768 8.74895 24099 ft 349 kts 18°
2026-04-25 13:43 52.74899 8.76796 24099 ft 350 kts 18°
2026-04-25 13:43 52.77061 8.78724 24099 ft 351 kts 18°
2026-04-25 13:43 52.79224 8.80657 24099 ft 352 kts 18°
2026-04-25 13:44 52.81352 8.82560 24099 ft 353 kts 18°
2026-04-25 13:44 52.83527 8.84508 24100 ft 353 kts 18°
2026-04-25 13:44 52.85675 8.86434 24100 ft 354 kts 18°
2026-04-25 13:44 52.87849 8.88384 24100 ft 354 kts 18°
2026-04-25 13:45 52.90002 8.90318 24100 ft 355 kts 18°
2026-04-25 13:45 52.92181 8.92278 24101 ft 355 kts 18°
2026-04-25 13:45 52.94322 8.94206 24101 ft 355 kts 18°
2026-04-25 13:45 52.96502 8.96172 24101 ft 355 kts 18°
2026-04-25 13:46 52.98646 8.98106 24101 ft 355 kts 19°
2026-04-25 13:46 53.00831 9.00079 24102 ft 355 kts 19°
2026-04-25 13:46 53.02999 9.02040 24102 ft 355 kts 19°
2026-04-25 13:46 53.05178 9.04014 24102 ft 355 kts 20°
2026-04-25 13:47 53.07318 9.05954 24103 ft 356 kts 20°
2026-04-25 13:47 53.09510 9.07943 24103 ft 356 kts 21°
2026-04-25 13:47 53.11658 9.09895 24101 ft 356 kts 21°
2026-04-25 13:47 53.13831 9.11873 24100 ft 356 kts 21°
2026-04-25 13:48 53.16008 9.13858 24101 ft 356 kts 21°
2026-04-25 13:48 53.18168 9.15828 24101 ft 357 kts 21°
2026-04-25 13:48 53.20342 9.17813 24101 ft 357 kts 21°
2026-04-25 13:48 53.22507 9.19792 24101 ft 357 kts 21°
2026-04-25 13:49 53.24681 9.21782 24102 ft 357 kts 21°
2026-04-25 13:49 53.26856 9.23774 24102 ft 357 kts 21°
2026-04-25 13:49 53.29033 9.25771 24102 ft 357 kts 21°
2026-04-25 13:49 53.31215 9.27776 24102 ft 357 kts 21°
2026-04-25 13:50 53.33391 9.29776 24103 ft 357 kts 21°
2026-04-25 13:50 53.35553 9.31766 24103 ft 357 kts 21°
2026-04-25 13:50 53.37716 9.33762 24105 ft 357 kts 21°
2026-04-25 13:50 53.39896 9.35774 24089 ft 358 kts 21°
2026-04-25 13:51 53.42084 9.37797 24102 ft 357 kts 21°
2026-04-25 13:51 53.44255 9.39805 24104 ft 357 kts 21°
2026-04-25 13:51 53.46407 9.41797 24104 ft 357 kts 21°
2026-04-25 13:51 53.48654 9.43453 24107 ft 349 kts 11°
2026-04-25 13:52 53.50980 9.44144 24102 ft 328 kts 347°
2026-04-25 13:52 53.53169 9.43517 24107 ft 319 kts 338°
2026-04-25 13:52 53.55347 9.42750 24105 ft 320 kts 338°
2026-04-25 13:52 53.57511 9.42022 24105 ft 321 kts 339°
2026-04-25 13:53 53.59699 9.41290 24105 ft 321 kts 339°
2026-04-25 13:53 53.61896 9.40553 24105 ft 321 kts 339°
2026-04-25 13:53 53.64064 9.39825 24105 ft 321 kts 339°
2026-04-25 13:53 53.66270 9.39084 24105 ft 321 kts 339°
2026-04-25 13:54 53.68436 9.38355 24105 ft 321 kts 339°
2026-04-25 13:54 53.70644 9.37611 24105 ft 321 kts 339°
2026-04-25 13:54 53.72821 9.36877 24105 ft 321 kts 339°
2026-04-25 13:54 53.74984 9.36147 24105 ft 321 kts 339°
2026-04-25 13:55 53.77179 9.35405 24105 ft 321 kts 339°
2026-04-25 13:55 53.79371 9.34664 24105 ft 321 kts 339°
2026-04-25 13:55 53.81608 9.34249 24098 ft 337 kts 355°
2026-04-25 13:55 53.83882 9.35565 24106 ft 355 kts 24°
2026-04-25 13:56 53.85579 9.38377 23891 ft 342 kts 54°
2026-04-25 13:56 53.86355 9.42068 23392 ft 331 kts 85°
2026-04-25 13:56 53.86056 9.45778 22801 ft 312 kts 118°
2026-04-25 13:56 53.85025 9.48898 22189 ft 300 kts 130°
2026-04-25 13:57 53.83927 9.51828 21573 ft 295 kts 130°
2026-04-25 13:57 53.83567 9.52782 21338 ft 294 kts 130°
2026-04-25 13:57 53.81738 9.57627 20098 ft 293 kts 130°
2026-04-25 13:57 53.80647 9.60519 19353 ft 290 kts 129°
2026-04-25 13:58 53.79577 9.63353 18615 ft 287 kts 129°
2026-04-25 13:58 53.78508 9.66187 17866 ft 284 kts 130°
2026-04-25 13:58 53.77458 9.68973 17138 ft 280 kts 129°
2026-04-25 13:58 53.76377 9.71615 16432 ft 269 kts 140°
2026-04-25 13:59 53.74960 9.73434 15737 ft 254 kts 157°
2026-04-25 13:59 53.73437 9.74815 15040 ft 249 kts 159°
2026-04-25 13:59 53.71909 9.76144 14335 ft 245 kts 159°
2026-04-25 13:59 53.70398 9.77459 13629 ft 243 kts 159°
2026-04-25 14:00 53.69899 9.77893 13394 ft 242 kts 159°
2026-04-25 14:00 53.67448 9.80028 12228 ft 238 kts 158°
2026-04-25 14:00 53.65998 9.81290 11528 ft 236 kts 158°
2026-04-25 14:00 53.64568 9.82534 10829 ft 235 kts 158°
2026-04-25 14:01 53.63126 9.83785 10032 ft 237 kts 158°
2026-04-25 14:01 53.61760 9.84979 9252 ft 210 kts 158°
2026-04-25 14:01 53.60518 9.86055 8257 ft 203 kts 159°
2026-04-25 14:01 53.59292 9.87114 7228 ft 201 kts 159°
2026-04-25 14:02 53.58093 9.88150 6213 ft 199 kts 158°
2026-04-25 14:02 53.56886 9.89195 5186 ft 199 kts 158°
2026-04-25 14:02 53.55670 9.90247 4270 ft 191 kts 158°
2026-04-25 14:02 53.55295 9.90574 4172 ft 180 kts 158°
2026-04-25 14:03 53.53426 9.92177 4111 ft 211 kts 158°
2026-04-25 14:03 53.51983 9.93419 4111 ft 253 kts 156°
2026-04-25 14:03 53.50385 9.94807 4132 ft 261 kts 156°
2026-04-25 14:03 53.48785 9.96194 4250 ft 260 kts 157°
2026-04-25 14:04 53.47161 9.97591 4323 ft 261 kts 157°
2026-04-25 14:04 53.45549 9.98979 4396 ft 261 kts 157°
2026-04-25 14:04 53.43933 10.00369 4448 ft 262 kts 157°
2026-04-25 14:04 53.42302 10.01771 4327 ft 261 kts 157°
2026-04-25 14:05 53.40775 10.03085 4119 ft 241 kts 157°
2026-04-25 14:05 53.39326 10.04329 4092 ft 224 kts 158°
2026-04-25 14:05 53.37970 10.05489 4093 ft 219 kts 158°
2026-04-25 14:05 53.36621 10.06655 4093 ft 217 kts 154°
2026-04-25 14:06 53.35702 10.08647 4097 ft 225 kts 109°
2026-04-25 14:06 53.35807 10.11156 4096 ft 212 kts 63°
2026-04-25 14:06 53.36761 10.12797 4097 ft 191 kts 27°
2026-04-25 14:06 53.37568 10.14484 4090 ft 186 kts 70°
2026-04-25 14:07 53.37536 10.16523 4088 ft 170 kts 114°
2026-04-25 14:07 53.36830 10.17973 4092 ft 156 kts 157°
2026-04-25 14:07 53.35836 10.18482 4090 ft 150 kts 164°
2026-04-25 14:07 53.35457 10.20018 3945 ft 161 kts 64°
2026-04-25 14:08 53.36168 10.21360 4041 ft 148 kts 24°
2026-04-25 14:08 53.37106 10.21696 4089 ft 136 kts 340°
2026-04-25 14:08 53.37891 10.20892 4101 ft 138 kts 312°
2026-04-25 14:08 53.38669 10.19864 4092 ft 147 kts 322°
2026-04-25 14:09 53.39595 10.19024 4089 ft 155 kts 328°
2026-04-25 14:09 53.40604 10.18284 4090 ft 156 kts 332°
2026-04-25 14:09 53.41566 10.17652 4083 ft 142 kts 331°
2026-04-25 14:09 53.41876 10.17454 4078 ft 140 kts 331°
2026-04-25 14:10 53.43383 10.16468 4048 ft 135 kts 332°
2026-04-25 14:10 53.44185 10.15846 4100 ft 119 kts 322°
2026-04-25 14:10 53.44894 10.15211 3994 ft 113 kts 322°
2026-04-25 14:10 53.45579 10.14603 3833 ft 115 kts 322°
2026-04-25 14:11 53.46318 10.13954 3696 ft 125 kts 323°
2026-04-25 14:11 53.47104 10.13276 3544 ft 129 kts 324°
2026-04-25 14:11 53.47906 10.12589 3381 ft 130 kts 325°
2026-04-25 14:11 53.48725 10.11890 3210 ft 132 kts 326°
2026-04-25 14:12 53.49547 10.11189 3031 ft 135 kts 324°
2026-04-25 14:12 53.50385 10.10468 2852 ft 137 kts 326°
2026-04-25 14:12 53.51242 10.09735 2663 ft 138 kts 326°
2026-04-25 14:12 53.52098 10.09005 2471 ft 141 kts 325°
2026-04-25 14:13 53.52980 10.08241 2279 ft 141 kts 328°
2026-04-25 14:13 53.53778 10.07570 2125 ft 119 kts 328°
2026-04-25 14:13 53.54452 10.06996 1960 ft 94 kts 325°
2026-04-25 14:13 53.54915 10.06617 1844 ft 64 kts 321°
2026-04-25 14:14 53.55293 10.06280 1750 ft 58 kts 320°
2026-04-25 14:14 53.55626 10.05992 1666 ft 50 kts 322°
2026-04-25 14:14 53.56001 10.05645 1600 ft 71 kts 326°
2026-04-25 14:14 53.56505 10.05205 1509 ft 91 kts 323°
2026-04-25 14:15 53.57113 10.04689 1385 ft 105 kts 327°
2026-04-25 14:15 53.57339 10.04497 1330 ft 109 kts 326°
2026-04-25 14:15 53.58496 10.03510 1065 ft 110 kts 325°
2026-04-25 14:15 53.59177 10.02936 924 ft 107 kts 326°
2026-04-25 14:16 53.59833 10.02413 794 ft 105 kts 328°
2026-04-25 14:16 53.60511 10.01825 675 ft 112 kts 327°
2026-04-25 14:16 53.61232 10.01172 440 ft 131 kts 330°
2026-04-25 14:16 53.62072 10.00443 288 ft 139 kts 326°
2026-04-25 14:17 53.62913 9.99704 93 ft 133 kts 330°
2026-04-25 14:17 53.63636 9.99070 57 ft 81 kts 338°
2026-04-25 14:17 53.63804 9.98922 57 ft 11 kts 155°
2026-04-25 14:17 53.63703 9.99019 57 ft 20 kts 152°
2026-04-25 14:18 53.63564 9.99143 57 ft 26 kts 155°
2026-04-25 14:18 53.63377 9.99301 57 ft 31 kts 154°
2026-04-25 14:18 53.63180 9.99331 57 ft 27 kts 193°
2026-04-25 14:18 53.63108 9.99303 57 ft 0 kts 196°
2026-04-25 14:19 53.63095 9.99296 57 ft 5 kts 197°
2026-04-25 14:20 53.63039 9.99252 57 ft 12 kts 220°
2026-04-25 14:20 53.63016 9.99213 57 ft 15 kts 228°
2026-04-25 14:20 53.62883 9.98943 57 ft 21 kts 229°
2026-04-25 14:20 53.62793 9.98795 57 ft 13 kts 164°
2026-04-25 14:21 53.62759 9.98869 57 ft 6 kts 62°
2026-04-25 14:21 53.62762 9.98875 57 ft 0 kts 62°
2026-04-25 14:21 53.62763 9.98878 57 ft 0 kts 62°
2026-04-25 14:21 53.62764 9.98882 57 ft 0 kts 62°